Flag for Germany Weather past 2 weeks in Duisburg, North Rhine-Westphalia, Germany

Now
32 °F

Light snow. Ice fog.


Feels Like: 24 °F
Forecast: 34 / 38 °F
Wind: 10 mph from West

Location: Duesseldorf

Current Time: Jan 30, 2015 at 6:37:31 AM

Latest Report: Jan 30, 2015 at 6:20 AM


Visibility: 2 mi

Pressure: 28.80 "Hg

Humidity: 100%

Dew point: 32 °F

Location of DuisburgLocation

Historic Weather in Duisburg — Graph

°F

Duisburg temperature yesterday

Maximum temperature yesterday: 41 °F (at 12:20 PM)
Minimum temperature yesterday: 34 °F (at 3:50 AM)
Average temperature yesterday: 38 °F

Past Weeks' High & Low Weather Summary

 TemperatureHumidityPressure
High52 °F (Jan 15, 4:50 PM)100% (Jan 17, 8:20 AM)30.42 "Hg (Jan 17, 8:20 AM)
Low25 °F (Jan 25, 2:20 AM)52% (Jan 21, 1:20 PM)28.71 "Hg (Jan 29, 11:20 PM)
Average37 °F83%29.91 "Hg
* Reported Jan 15 5:20 AM — Jan 30 5:20 AM, Duisburg, Weather by CustomWeather, © 2014

Note: Actual official high and low records may vary slightly from our data, if they occured in-between our weather recording intervals... More about our weather records

Advertising

Duisburg weather history for previous 24 hours

 ConditionsComfort  
Time TempWeatherWind HumidityBarometerVisibility
5:20 AM
Jan 30
34 °FPassing clouds.13 mph87%28.77 "HgN/A
4:20 AM34 °FPassing clouds.13 mph93%28.74 "HgN/A
3:50 AM34 °FLight snow. Passing clouds.13 mph93%28.74 "HgN/A
3:20 AM34 °FLight snow. Partly cloudy.13 mph100%28.74 "Hg4 mi
2:50 AM34 °FLight snow. Fog.12 mph93%28.74 "Hg2 mi
2:20 AM34 °FLight snow. Fog.13 mph93%28.71 "Hg2 mi
1:50 AM36 °FLight rain. Partly cloudy.14 mph93%28.71 "Hg4 mi
1:20 AM36 °FLight rain. Partly cloudy.12 mph93%28.71 "Hg5 mi
12:50 AM36 °FLight rain. Partly cloudy.10 mph93%28.71 "HgN/A
12:20 AM37 °FLight rain. Passing clouds.9 mph87%28.71 "HgN/A
11:50 PM
Jan 29
37 °FLight rain. Partly cloudy.12 mph87%28.71 "HgN/A
11:20 PM39 °FLight rain. Passing clouds.8 mph81%28.71 "HgN/A
10:50 PM39 °FLight rain. Passing clouds.9 mph81%28.74 "HgN/A
10:20 PM39 °FPassing clouds.8 mph81%28.74 "HgN/A
9:50 PM39 °FPassing clouds.8 mph81%28.74 "HgN/A
9:20 PM39 °FPartly cloudy.7 mph81%28.77 "HgN/A
8:50 PM39 °FPassing clouds.9 mph81%28.77 "HgN/A
8:20 PM39 °FPartly cloudy.10 mph81%28.80 "HgN/A
7:50 PM39 °FPartly cloudy.10 mph81%28.82 "HgN/A
7:20 PM39 °FPartly cloudy.12 mph81%28.82 "HgN/A
6:50 PM39 °FPassing clouds.13 mph81%28.85 "HgN/A
6:20 PM39 °FPassing clouds.12 mph81%28.88 "HgN/A
5:50 PM39 °FPassing clouds.14 mph81%28.88 "HgN/A
5:20 PM39 °FPartly cloudy.17 mph81%28.91 "HgN/A
4:50 PM39 °FSprinkles. Partly sunny.16 mph81%28.91 "HgN/A
4:20 PM41 °FSprinkles. Partly sunny.16 mph70%28.94 "HgN/A
3:50 PM41 °FScattered clouds.17 mph76%28.97 "HgN/A
3:20 PM41 °FSprinkles. Scattered clouds.15 mph81%29.00 "HgN/A
2:50 PM39 °FScattered clouds.13 mph87%29.03 "HgN/A
2:20 PM39 °FSprinkles. Scattered clouds.18 mph81%29.06 "HgN/A
1:50 PM39 °FSprinkles. Broken clouds.22 mph81%29.09 "Hg5 mi
1:20 PM41 °FSprinkles. Partly sunny.20 mph70%29.09 "HgN/A
12:50 PM41 °FSprinkles. Partly sunny.21 mph70%29.12 "HgN/A
12:20 PM41 °FScattered clouds.21 mph70%29.15 "HgN/A
11:50 AM39 °FScattered clouds.20 mph75%29.18 "HgN/A
11:20 AM39 °FScattered clouds.16 mph75%29.18 "HgN/A
10:50 AM39 °FPartly sunny.18 mph75%29.21 "HgN/A
10:20 AM39 °FSprinkles. Partly sunny.21 mph75%29.24 "HgN/A
9:50 AM37 °FPartly sunny.17 mph81%29.24 "HgN/A
9:20 AM37 °FPartly sunny.16 mph75%29.27 "HgN/A
8:50 AM37 °FPartly sunny.16 mph81%29.27 "HgN/A
8:20 AM37 °FPartly sunny.18 mph75%29.27 "HgN/A
7:50 AM36 °FPassing clouds.17 mph81%29.30 "HgN/A
7:20 AM36 °FPassing clouds.16 mph81%29.30 "HgN/A
6:50 AM36 °FPassing clouds.18 mph81%29.30 "HgN/A
6:20 AM36 °FPassing clouds.17 mph81%29.33 "HgN/A
Weather by CustomWeather, © 2014

See weather overviewHow to use our weather pages